Kailua Kona, HI

1:54 PM HST on August 28, 2016 (GMT -1000)
Kona International At Keahole

Weather History for PHKO - May, 2012

Change the Weather History Date:

Thursday, May 17, 2012

  Actual Average Record
Temperature  
Mean Temperature 78 °F -  
Max Temperature 84 °F 80 °F 90 °F (1986)
Min Temperature 72 °F 70 °F 66 °F (2004)
Cooling Degree Days 13    
Growing Degree Days 28 (Base 50)    
Moisture  
Dew Point 64 °F    
Average Humidity 62    
Maximum Humidity 69    
Minimum Humidity 47    
Precipitation  
Precipitation 0.00 in - - ()
Sea Level Pressure  
Sea Level Pressure 30.05 in    
Wind  
Wind Speed 7 mph (South)    
Max Wind Speed 16 mph    
Max Gust Speed -    
Visibility 10 miles    
Events      
Averages and records for this station are not official NWS values.
T = Trace of Precipitation, MM = Missing Value Source: NWS Daily Summary

Daily Weather History Graph

Daily Weather History Graph

Search for Another Location

Airport or City:

Trip Planner

Search our weather history database for the weather conditions in past years. The results will help you decide how hot, cold, wet, or windy it might be!

Date:

Astronomy

May. 17, 2012 Rise Set
Actual Time 5:47 AM HST 6:53 PM HST
Civil Twilight 5:23 AM HST 7:17 PM HST
Nautical Twilight 4:55 AM HST 7:45 PM HST
Astronomical Twilight 4:27 AM HST 8:14 PM HST
Moon 3:32 AM HST (5/17) 4:30 PM HST (5/17)
Length of Visible Light 13h 53m
Length of Day
13h 06m
Waning Crescent, 8% of the Moon is Illuminated
May 17
Waning Crescent
May 20
New
May 28
First Quarter
Jun 4
Full
Jun 11
Last Quarter

Hourly Weather History & Observations

Time (HST) Temp. Heat Index Dew Point Humidity Pressure Visibility Wind Dir Wind Speed Gust Speed Precip Events Conditions
12:53 AM 75.0 °F - 63.0 °F 66% 30.04 in 10.0 mi SE 4.6 mph - N/A   Mostly Cloudy
1:53 AM 75.0 °F - 62.1 °F 64% 30.04 in 10.0 mi North 4.6 mph - N/A   Overcast
2:53 AM 75.0 °F - 64.0 °F 69% 30.03 in 10.0 mi ESE 3.5 mph - N/A   Overcast
3:53 AM 75.0 °F - 64.0 °F 69% 30.03 in 10.0 mi SE 6.9 mph - N/A   Scattered Clouds
4:53 AM 73.0 °F - 62.1 °F 68% 30.03 in 10.0 mi ENE 10.4 mph - N/A   Partly Cloudy
5:53 AM 72.0 °F - 59.0 °F 64% 30.04 in 10.0 mi Calm Calm - N/A   Clear
6:53 AM 73.9 °F - 60.1 °F 62% 30.06 in 10.0 mi Calm Calm - N/A   Partly Cloudy
7:53 AM 78.1 °F - 63.0 °F 60% 30.06 in 10.0 mi Calm Calm - N/A   Clear
8:53 AM 81.0 °F 82.5 °F 64.0 °F 56% 30.06 in 10.0 mi South 9.2 mph - N/A   Clear
9:53 AM 81.0 °F 82.7 °F 64.9 °F 58% 30.07 in 10.0 mi South 15.0 mph - N/A   Clear
10:53 AM 82.9 °F 83.7 °F 62.1 °F 49% 30.06 in 10.0 mi South 13.8 mph - N/A   Clear
11:53 AM 84.0 °F 84.5 °F 62.1 °F 47% 30.06 in 10.0 mi South 13.8 mph - N/A   Clear
12:53 PM 82.9 °F 84.0 °F 63.0 °F 51% 30.05 in 10.0 mi South 16.1 mph - N/A   Clear
1:53 PM 84.0 °F 85.8 °F 64.9 °F 53% 30.03 in 10.0 mi SSW 13.8 mph - N/A   Scattered Clouds
2:53 PM 82.0 °F 83.8 °F 64.9 °F 56% 30.01 in 10.0 mi SSW 15.0 mph - N/A   Mostly Cloudy
3:53 PM 81.0 °F 83.0 °F 66.0 °F 60% 30.01 in 10.0 mi SW 11.5 mph - N/A   Overcast
4:53 PM 79.0 °F - 64.9 °F 62% 30.02 in 10.0 mi SW 10.4 mph - N/A   Overcast
5:53 PM 79.0 °F - 64.9 °F 62% 30.02 in 10.0 mi SW 6.9 mph - N/A   Overcast
6:53 PM 78.1 °F - 64.9 °F 64% 30.05 in 10.0 mi SSW 6.9 mph - N/A   Overcast
7:53 PM 78.1 °F - 66.0 °F 66% 30.07 in 10.0 mi South 4.6 mph - N/A   Overcast
8:53 PM 77.0 °F - 66.0 °F 69% 30.09 in 10.0 mi SSW 3.5 mph - N/A   Overcast
9:53 PM 77.0 °F - 64.9 °F 66% 30.11 in 10.0 mi ESE 5.8 mph - N/A   Overcast
10:53 PM 77.0 °F - 64.9 °F 66% 30.11 in 10.0 mi SE 3.5 mph - N/A   Mostly Cloudy
11:53 PM 75.9 °F - 64.9 °F 69% 30.09 in 10.0 mi SSE 3.5 mph - N/A   Overcast